ABS-2A (MONGOLSAT-1)

Last updated on Aug. 14, 2020, 5:30 a.m. UTC

1 41588U 16038A   20226.74927937 -.00000083  00000-0  00000+0 0  9995
2 41588   0.0088  96.0474 0001602 313.8320 257.2093  1.00272903 15304
UTC
Height (km)
Latitude
Longitude
Inclination
Orbital Period
UTC large
Height (km)
Speed (km/s)
/
Latitude / Longitude
Inclination (degrees)
Orbital Period (minutes)
Azimuth
Elevation
Range (km)
Doppler Factor
iOS Compass Heading
iOS Angle

Next 30 passes for location: Hong Kong

Rise time Rise Azimuth (degrees) Set time Set Azimuth (degrees) Duration Max altitude (degrees)

No matching passes for this satellites